Location: Hirschlanden
(47.8646°N, 8.9217°E)
Time: 15:44:56
(UTC+00:00)

Daily predictions for brighter satellites

Satellite Brightness Start Highest point End
(mag) Time Altitude Azimuth Time Altitude Azimuth Time Altitude Azimuth
Cosmos 1092 Rocket 4.3 15:56:27 10° N 16:02:37 49° ENE 16:08:42 10° SSE
SJ-7 4.5 16:00:07 10° SSE 16:04:18 73° ENE 16:08:33 10° N
MOS 1 Rocket 4.0 16:01:17 10° N 16:06:11 58° WNW 16:10:46 10° SSW
COSMOS 2455 3.5 16:01:32 10° S 16:07:01 38° ESE 16:12:32 10° NE
Spot 1 4.5 16:06:57 10° NNE 16:11:41 62° ESE 16:16:38 10° S
Cosmos 2322 Rocket 3.7 16:10:18 10° N 16:13:53 17° NE 16:17:28 10° ENE
Cosmos 1697 Rocket 2.7 16:08:38 10° NNW 16:14:18 86° ENE 16:19:55 10° SSE
CZ-4C R/B 3.1 16:08:56 10° NW 16:15:45 54° NE 16:23:48 10° ESE
Cosmos 468 Rocket 4.0 16:13:09 10° SSW 16:18:19 83° ESE 16:23:34 10° NNE
Cosmos 1980 Rocket 2.3 16:13:57 10° NNW 16:19:31 53° ENE 16:25:01 10° SE
NOAA 12 4.1 16:16:08 10° SSE 16:21:27 81° ENE 16:26:48 10° NNW
ATLAS CENTAUR R/B 3.1 16:13:47 10° SW 16:24:40 76° SE 16:28:48 12° NE
COSMO-SKYMED 1 4.2 16:22:45 10° NE 16:25:19 15° E 16:27:52 10° SE
Meteor PRIRODA 3.7 16:21:47 10° SSE 16:25:24 83° WSW 16:29:02 10° NNW
Cosmos 1898 Rocket 3.7 16:20:15 10° NNW 16:25:31 76° WSW 16:30:42 10° SSE
Cosmos 1627 Rocket 4.5 16:19:29 10° N 16:25:37 60° ENE 16:31:38 10° SSE
Cosmos 2369 3.7 16:20:35 10° NNW 16:26:21 73° ENE 16:32:03 10° SE
Cosmos 1933 3.3 16:23:36 10° S 16:27:36 63° E 16:31:36 10° NNE
USA 305 3.7 16:25:19 10° WNW 16:29:16 36° N 16:32:38 13° ENE
Cosmos 1633 Rocket 4.0 16:25:34 10° NNE 16:29:18 27° ENE 16:33:02 10° SE
FengYun 1-2 T 4.2 16:24:26 10° SSE 16:30:01 80° ENE 16:35:35 10° NNW
Cosmos 2034 Rocket 4.1 16:24:04 10° SSW 16:30:13 80° W 16:36:26 10° N
CZ-4B R/B 3.0 16:26:37 10° S 16:30:37 78° WSW 16:34:25 10° NNW
NOSS 2-2 (C) 4.3 16:26:07 10° NW 16:31:12 79° NE 16:38:21 10° SE
Cosmos 1812 3.7 16:28:04 10° SSE 16:31:19 26° E 16:34:33 10° NNE
CORIOLIS 4.2 16:26:25 10° SSE 16:31:43 61° ENE 16:37:06 10° N
Cosmos 1818 4.1 16:27:03 10° NNW 16:32:12 39° NE 16:37:18 10° ESE
SL-16 R/B 3.2 16:28:52 10° N 16:33:31 25° NE 16:38:09 10° E
AQUARIUS 4.2 16:31:50 10° SSE 16:36:15 62° ENE 16:40:41 10° N
Cosmos 1151 Rocket 3.9 16:32:46 10° SSE 16:36:31 30° E 16:40:19 10° NNE
Cosmos 2082 Rocket 2.5 16:31:58 10° S 16:37:26 51° ESE 16:42:54 10° NE
USA 267 3.3 16:32:04 11° ENE 16:38:24 73° SE 16:44:55 10° SW
SMAP 3.0 16:36:25 10° SSE 16:41:04 80° ENE 16:45:45 10° NNW
Meteor 2-14 Rocket 4.4 16:36:05 10° N 16:42:13 72° ENE 16:48:16 10° SSE
Meteor 1-14 Rocket 4.5 16:38:01 10° N 16:43:43 52° ENE 16:49:28 10° SSE
Cosmos 1743 Rocket 4.5 16:41:32 10° NNW 16:45:44 51° W 16:49:56 10° S
ARGOS 3.7 16:42:58 10° SE 16:47:46 34° ENE 16:52:35 10° N
MOS 1-B 4.4 16:42:13 10° SE 16:47:50 55° ENE 16:53:27 10° N
Cosmos 2333 Rocket 4.0 16:45:34 10° N 16:48:06 13° NNE 16:49:04 12° NE
Cosmos 1763 Rocket 4.1 16:43:10 10° SW 16:48:09 55° WNW 16:53:12 10° NNE
Cosmos 1634 Rocket 4.0 16:42:42 10° S 16:48:59 72° E 16:55:19 10° NNE
Cosmos 2278 3.7 16:43:55 10° NNW 16:49:37 65° ENE 16:55:15 10° SE
Cosmos 2026 Rocket 3.9 16:44:08 10° N 16:50:18 87° E 16:56:22 10° S
Cosmos 1602 4.1 16:46:55 10° NNW 16:50:46 66° W 16:54:36 10° S
CZ-4B DEB 4.1 16:45:34 10° SSE 16:51:03 76° ENE 16:56:34 10° NNW
Cosmos 44 Rocket 3.5 16:49:35 10° NNW 16:54:23 48° NE 16:59:02 10° ESE
Cosmos 1833 Rocket 3.1 16:49:35 10° SW 16:55:09 62° WNW 17:00:46 10° NNE
CZ-2C R/B 4.2 16:51:37 10° S 16:56:14 43° W 17:00:47 10° NNW
Cosmos 841 Rocket 3.4 16:51:15 10° SSW 16:56:24 83° ESE 17:01:35 10° NNE
Cosmos 1666 Rocket 3.6 16:52:44 10° N 16:57:08 59° ENE 17:01:28 10° SSE
Okean O Rocket 2.2 16:53:46 10° SE 16:57:46 34° ENE 17:01:49 10° N
MOS 1-B Rocket 4.3 16:52:25 10° NNE 16:58:15 51° E 17:04:53 10° S
Cosmos 1328 Rocket 4.1 16:56:04 10° SSE 17:00:09 37° E 17:03:23 15° NNE
Cosmos 1470 Rocket 4.2 16:56:25 10° N 17:00:27 33° ENE 17:04:30 10° SE
H-2A R/B 1.9 16:56:13 10° SSE 17:01:17 66° ENE 17:06:16 10° N
USA 306 3.5 16:57:39 10° WNW 17:01:41 40° NNE 17:03:36 25° ENE
Cosmos 1937 Rocket 4.5 16:57:04 10° NNW 17:02:14 52° WSW 17:07:22 10° S
Cosmos 1939 Rocket 3.7 16:58:36 10° S 17:02:37 54° W 17:06:37 10° NNW
COSMOS 2406 3.5 16:58:34 10° SW 17:04:17 68° WNW 17:10:01 10° NNE
Cosmos 2219 Rocket 4.0 17:02:16 10° N 17:04:45 13° NNE 17:04:46 13° NNE
ISS -2.7 17:01:47 10° WNW 17:05:03 44° SSW 17:08:18 10° SE
ATLAS 2AS CENTAUR R/B 4.2 17:00:43 10° NW 17:06:37 23° N 17:10:37 15° NE
Cosmos 372 Rocket 4.3 17:01:53 10° NNW 17:07:08 72° WSW 17:12:20 10° SSE
CZ-2C R/B 2.9 17:02:58 10° NNE 17:07:51 42° E 17:12:44 10° SSE
Meteor 2-21 Rocket 4.4 17:01:56 10° N 17:08:05 84° E 17:14:08 10° S
Cosmos 1125 Rocket 3.9 17:03:39 10° N 17:08:34 39° ENE 17:13:28 10° SE
Cosmos 1500 3.7 17:06:58 10° NNW 17:10:39 58° W 17:14:18 10° S
USA 234 3.4 17:06:04 10° SE 17:12:37 80° SW 17:19:11 10° NW
SKYMED 2 3.9 17:11:18 22° NE 17:13:47 43° E 17:17:55 10° S
Cosmos 1782 3.5 17:12:46 10° SSW 17:16:41 55° WNW 17:20:37 10° N
Cosmos 1900 4.5 17:11:59 10° SSW 17:16:41 53° ESE 17:18:52 30° ENE
CZ-2D R/B 3.4 17:14:09 10° S 17:17:59 76° WSW 17:21:49 10° NNW
Sich 1 4.1 17:14:06 10° NNW 17:18:14 47° W 17:22:21 10° SSW
Cosmos 1655 Rocket 4.2 17:12:42 10° N 17:18:56 51° ENE 17:25:05 10° SSE
CZ-4B R/B 3.0 17:14:54 10° SSE 17:20:17 73° ENE 17:25:36 10° NNW
USA 307 3.4 17:17:18 10° WNW 17:21:23 43° NNE 17:22:25 36° NE
Cosmos 2180 Rocket 4.5 17:16:24 10° S 17:22:38 64° E 17:28:49 10° NNE
Meteor 2-6 Rocket 4.2 17:17:12 10° S 17:22:51 62° E 17:28:21 10° NNE
APEX 4.5 17:21:07 10° S 17:23:25 23° SE 17:23:25 23° SE
SJ-11-01 4.2 17:19:55 10° SSE 17:24:35 64° ENE 17:29:18 10° N
ATLAS 5 CENTAUR R/B 2.1 17:18:42 10° NW 17:25:46 51° NNE 17:26:27 44° ENE
PAYLOAD B 4.5 17:20:55 10° S 17:26:31 74° WSW 17:32:08 10° NNW
deb Chang Zheng 4 3.4 17:26:06 10° SSE 17:30:24 81° ENE 17:34:45 10° NNW
ERBS 4.4 17:29:17 10° NW 17:30:53 16° N 17:30:53 16° N
Cosmos 2360 Rocket 2.9 17:32:28 10° NNW 17:37:21 33° NE 17:37:21 33° NE
Lacrosse 5 rocket 1.2 17:34:15 10° NW 17:38:11 88° SW 17:39:13 50° SE
Cosmos 1666 3.6 17:36:08 10° NNW 17:39:44 48° W 17:43:18 10° S
USA 308 3.1 17:39:54 10° WNW 17:44:05 51° NNE 17:44:08 51° NNE
Cosmos 1515 Rocket 3.5 17:40:23 10° S 17:44:44 59° E 17:44:48 59° E
Meteor 1-10 Rocket 4.1 17:46:35 10° S 17:52:20 79° E 17:56:15 21° NNE
Meteor 1-11 Rocket 3.6 17:46:56 10° N 17:52:35 74° ENE 17:58:19 10° SSE
COSMOS 2455 3.6 17:47:04 10° WSW 17:52:51 48° NW 17:56:40 21° NNE
Cosmos 921 Rocket 2.8 17:53:34 10° SSW 17:57:46 87° WNW 17:57:55 83° N
Cosmos 2322 Rocket 2.1 17:53:22 10° NNW 17:59:05 67° ENE 18:00:15 53° ESE
SL-08 RB Rocket 3.6 17:55:05 10° SSE 17:59:44 87° WSW 18:04:22 10° NNW
COSMO-SKYMED 1 3.0 17:59:55 30° N 18:01:53 62° WNW 18:06:10 10° SSW
Cosmos 2298 Rocket 4.2 17:56:56 10° NNW 18:02:16 73° WSW 18:07:34 10° SSE
Cosmos 1980 Rocket 4.2 17:58:30 10° NW 18:03:12 28° WSW 18:07:52 10° SSW
CZ-4C R/B 3.8 17:57:29 10° NW 18:04:32 51° WSW 18:12:39 10° SSE
Meteor 2-15 Rocket 4.3 18:03:14 10° S 18:09:22 89° E 18:14:07 18° N
USA 305 3.5 18:05:21 10° WNW 18:08:38 50° NW 18:08:38 50° NW
Feng Yun 1-1 Rocket 4.4 18:05:01 10° SSE 18:10:57 83° WSW 18:16:50 10° NNW
YAOGAN 1 4.4 18:14:04 21° NNW 18:14:04 21° NNW 18:15:34 10° NNW
CZ-2C R/B 3.8 18:13:10 10° SSW 18:14:25 13° S 18:14:25 13° S
Cosmos 2266 Rocket 4.3 18:11:41 10° NNW 18:18:02 68° W 18:24:23 10° S
SL-16 R/B 2.4 18:12:31 10° NNW 18:18:11 71° WSW 18:21:04 30° S
Aureole 3 Rocket 4.4 18:14:10 10° S 18:26:48 - N 18:16:26 34° S
USA 267 3.7 18:19:25 41° NNE 18:21:17 53° NNW 18:27:34 10° W
Cosmos 2082 Rocket 3.7 18:16:41 10° WSW 18:21:45 32° NW 18:24:53 19° N
Landsat 5 4.5 18:25:10 42° WSW 18:25:10 42° WSW 18:28:15 10° SW
ARGOS 4.4 18:22:53 10° SSW 18:27:57 40° W 18:33:02 10° NNW
GEOS 3 Rocket 3.8 18:30:35 67° NW 18:30:35 67° NW 18:35:05 10° NW
Cosmos 2333 Rocket 3.7 18:28:26 10° NNW 18:31:06 26° N 18:31:06 26° N
Okean O Rocket 3.6 18:30:17 10° SSW 18:34:09 29° W 18:38:02 10° NW
CZ-2C R/B 4.2 18:44:29 15° N 18:48:00 30° WNW 18:52:26 10° WSW
Cosmos 2219 Rocket 4.1 18:44:45 10° NNW 18:46:30 20° N 18:46:30 20° N
ATLAS CENTAUR R/B 4.3 18:51:12 10° WNW 18:54:28 21° NW 18:54:28 21° NW
NOSS 3-4 (A) 4.4 18:50:15 10° NW 18:55:00 43° N 18:55:00 43° N
NOSS 3-4 (C) 4.4 18:50:22 10° NW 18:55:05 43° N 18:55:05 43° N
Meteor 1-27 Rocket 4.5 18:52:00 10° SSW 18:56:41 48° W 18:56:41 48° W
ATLAS 2AS CENTAUR R/B 4.0 18:53:12 10° NW 18:58:02 30° N 18:58:02 30° N
Cosmos 2360 Rocket 3.9 19:16:19 10° NW 19:19:09 29° NW 19:19:09 29° NW
Cosmos 2322 Rocket 4.3 19:38:20 10° NW 19:42:10 22° W 19:42:10 22° W
